Location: Passau
(48.5721°N, 13.4363°E)
Time: 02:59:47
(UTC+01:00)

ISS - Pass Details

Date: 13 January 2018
Orbit: 402 x 407 km, 51.6° (Epoch: 18 January)

Event Time Altitude Azimuth Distance (km) Brightness Sun altitude
Exits shadow 05:33:54 41° 141° (SE) 598 -2.7 -22.6°
Drops below altitude 10° 05:36:14 10° 124° (SE) 1,463 -0.1 -22.2°
Sets 05:38:19 0° 121° (ESE) 2,321 1.2 -21.9°
